This is the latest recevied weather packets stored in our database for station/object K0NV. If no packets are shown the sender has not sent any weather packets the latest 10 day(s).
| Time | Temp. | Humidity | Pressure | Rain* | Wind** | Luminosity | Snow |
|---|---|---|---|---|---|---|---|
| 1777342180 | 19.44° C | 92% | 1011.4 hPa | 0 mm | - | 0 W/m² | - |
| 1777341876 | 19.44° C | 92% | 1011.3 hPa | 0 mm | - | 0 W/m² | - |
| 1777341572 | 19.44° C | 91% | 1011.1 hPa | 0 mm | - | 0 W/m² | - |
| 1777341268 | 19.44° C | 91% | 1010.8 hPa | 0 mm | - | 0 W/m² | - |
| 1777340965 | 20° C | 91% | 1010.8 hPa | 0 mm | - | 0 W/m² | - |
| 1777340664 | 20° C | 91% | 1010.8 hPa | 0 mm | - | 0 W/m² | - |
| 1777340361 | 20° C | 92% | 1010.6 hPa | 0 mm | - | 0 W/m² | - |
| 1777340058 | 19.44° C | 95% | 1010.4 hPa | 0 mm | - | 0 W/m² | - |
| 1777339755 | 19.44° C | 96% | 1010.4 hPa | 0 mm | - | 0 W/m² | - |
| 1777339453 | 20° C | 95% | 1010.2 hPa | 0 mm | - | 0 W/m² | - |
| 1777339150 | 20° C | 95% | 1009.9 hPa | 0 mm | - | 0 W/m² | - |
| 1777338848 | 20° C | 94% | 1010 hPa | 0 mm | - | 0 W/m² | - |
| 1777338545 | 20° C | 94% | 1010 hPa | 0 mm | - | 0 W/m² | - |
| 1777338243 | 20.56° C | 93% | 1009.7 hPa | 0 mm | - | 0 W/m² | - |
| 1777337937 | 20.56° C | 92% | 1009.6 hPa | 0 mm | - | 3 W/m² | - |
| 1777337634 | 20.56° C | 92% | 1009.8 hPa | 0 mm | - | 4 W/m² | - |
| 1777337326 | 21.11° C | 91% | 1009.8 hPa | 0 mm | - | 6 W/m² | - |
| 1777337024 | 21.11° C | 90% | 1009.7 hPa | 0 mm | - | 11 W/m² | - |
| 1777336722 | 21.67° C | 89% | 1009.4 hPa | 0 mm | - | 14 W/m² | - |
| 1777336420 | 21.67° C | 88% | 1008.9 hPa | 0 mm | - | 18 W/m² | - |
| 1777336117 | 21.67° C | 88% | 1009.1 hPa | 0 mm | - | 20 W/m² | - |
| 1777335813 | 21.67° C | 87% | 1008.9 hPa | 0 mm | - | 29 W/m² | - |
| 1777335512 | 22.22° C | 87% | 1009.1 hPa | 0 mm | - | 34 W/m² | - |
| 1777335208 | 21.67° C | 87% | 1009.1 hPa | 0 mm | - | 35 W/m² | - |
| 1777334905 | 22.22° C | 88% | 1008.8 hPa | 0 mm | - | 37 W/m² | - |
* Rain latest hour (hover to see other rain measurements)
** Current wind speed in m/s (hover to see current wind gust speed)